Location: Johnson City
(36.3130°N, 82.3540°W)
Time: 05:55:13
(UTC-04:00)

ISS - Visible Passes

Search period start: 27 May 2017 00:00
Search period end: 06 June 2017 00:00
Orbit: 402 x 408 km, 51.6° (Epoch: 27 May)

Date Brightness Start Highest point End Pass type
(mag) Time Alt. Az. Time Alt. Az. Time Alt. Az.
27 May -0.7 02:48:34 10° NNW 02:50:39 16° NNE 02:51:16 15° NE visible
27 May -3.9 04:27:44 62° S 04:27:44 62° S 04:30:41 10° SE visible
27 May -2.7 21:02:14 10° WSW 21:05:27 50° NW 21:08:40 10° NE visible
27 May -0.1 22:42:02 10° NNW 22:42:35 10° NNW 22:43:07 10° N visible
28 May -0.2 01:57:26 10° N 01:57:37 10° N 01:57:37 10° N visible
28 May -0.6 21:48:16 10° WNW 21:50:14 15° NNW 21:52:13 10° N visible
31 May -0.2 00:57:16 10° N 00:57:33 11° N 00:57:33 11° N visible
02 Jun -0.4 00:48:43 10° NNW 00:49:05 12° NNW 00:49:05 12° NNW visible
02 Jun -0.8 23:57:08 10° N 23:58:35 14° NNE 23:58:35 14° NNE visible
04 Jun -0.4 00:40:32 10° NW 00:40:45 11° NW 00:40:45 11° NW visible
04 Jun -1.3 23:48:39 10° NNW 23:50:19 21° N 23:50:19 21° N visible
05 Jun -1.4 22:56:56 10° NNW 22:59:09 17° NNE 22:59:54 15° NE visible
